SPACEBEE-37 (46936 NORAD) Tracking and Keplerian Element Data

This shows tracking and keplerian element data for the satellite.

Feedback or suggestion? Click here.




ElementValue
Catalog46936
NameSPACEBEE-37
Epoch Orbit897
Epoch Day18.12450687
Epoch Year2021
RAAN157.5491
Inclination97.375
Eccentricity0.0017118
Argument of Perigee94.3604
Mean Anonmoly265.9593
Mean Motion15.21682473
Decay Rate3.624E-05
L11 46936U 20085H 21018.12450687 .00003624 00000-0 16266-3 0 9997
L22 46936 97.3750 157.5491 0017118 94.3604 265.9593 15.21682473 8979

Live tracking and technical data element details for SPACEBEE-37 (NORAD 46936). SPACEBEE-37 can be tracked NOW for your location showing map with azimuth and elevation plus other details from your city location.

Track the satellite on the map from your city or location and see movement details for azimuth, elevation, latitude, longitude, range, height, and movement on the map or in text.







IsCatalogInMostPopularTable: catalog: 46936, numindb: 21
Update: records affected: 1



GetName: 46936 SPACEBEE-37

Hit Count: updated at: Tue, 19 Jan 2021 01:17:53 GMT